Terminal Aerodrome Forecast
Issued by NWS Houston/Galveston TX

Home | Current Version | Previous Version | Text Only | Print | Product List | Glossary On
Versions: 1 2 3 4 5 6 7 8 9 10 11 12 13 14 15 16 17 18 19 20 21 22 23 24 25 26 27 28 29 30 31 32 33 34 35 36 37 38 39 40 41 42 43 44 45 46 47 48 49 50
000
FTUS44 KHGX 212325
TAFHOU
TAF
KHOU 212325Z 2200/2224 11006KT P6SM BKN035 BKN080
     FM220200 17005KT P6SM BKN015 OVC045
     FM220700 17004KT P6SM BKN006 OVC015
     FM221500 19009KT P6SM SCT007 BKN015
     FM221800 20011G21KT P6SM BKN015 BKN025
     FM222100 20010G20KT P6SM SCT025 OVC250=

USA.gov is the U.S. government's official web portal to all federal, state and local government web resources and services.